Terminal Aerodrome Forecast
Issued by NWS

Home | Current Version | Previous Version | Text Only | Print | Product List | Glossary On
Versions: 1 2 3 4 5 6 7 8 9 10 11 12 13 14 15 16 17 18 19 20 21 22 23 24 25 26 27
428
FTUS43 KABR 250818 AAC
TAFATY
TAF AMD
KATY 250818Z 2508/2606 08010KT P6SM OVC007
     FM251700 10009KT P6SM SKC
     FM260500 VRB06KT P6SM BKN010=

USA.gov is the U.S. government's official web portal to all federal, state and local government web resources and services.